Regional Weather Roundup
Issued by NWS Newport/Morehead, NC

Current Version | Previous Version | Graphics & Text | Print | Product List | Glossary On
Versions: 1 2 3 4 5 6 7 8 9 10 11 12 13 14 15 16 17 18 19 20 21 22 23 24 25 26 27 28 29 30 31 32 33 34 35 36 37 38 39 40 41 42 43 44 45 46 47 48 49 50
673 ASUS42 KMHX 181212 RWRMHX WEATHER ROUNDUP FOR EASTERN NORTH CAROLINA NATIONAL WEATHER SERVICE NEWPORT/MOREHEAD CITY NC 700 AM EST WED JAN 18 2017 NOTE: "FAIR" INDICATES FEW OR NO CLOUDS BELOW 12,000 FEET WITH NO SIGNIFICANT WEATHER AND/OR OBSTRUCTIONS TO VISIBILITY NCZ015>017-031-032-045>047-102-103-181300- NORTH COAST CITY SKY/WX TMP DP RH WIND PRES REMARKS EDENTON LGT RAIN 63 57 82 CALM 29.93F ELIZABETH CITY CLOUDY 60 56 86 SW10 29.91F KITTY HAWK NOT AVBL MANTEO CLOUDY 56 56 97 W9 29.93S $$ NCZ045>047-081-094-103-104-181300- CENTRAL COAST CITY SKY/WX TMP DP RH WIND PRES REMARKS FRISCO LGT RAIN 62 57 83 W14G20 29.96S $$ NCZ095-097-098-100-101-181300- SOUTHERN COAST CITY SKY/WX TMP DP RH WIND PRES REMARKS BEAUFORT PTCLDY 61 57 87 SW17 29.97F CEDAR ISLAND NOT AVBL JACKSONVILLE MOCLDY 64 59 83 SW9 29.97F PINEY ISLAND CLOUDY N/A N/A N/A SW9 29.96S WILMINGTON MOCLDY 62 58 86 SW10 30.01F $$ NCZ011>013-027>030-043-044-078>080-089-090>093-098-181300- COASTAL PLAIN CITY SKY/WX TMP DP RH WIND PRES REMARKS AHOSKIE N/A 56 55 95 CALM 29.92F CLINTON CLOUDY 62 58 89 SW3 29.98R ELIZABETHTOWN CLOUDY 63 58 83 SW12 29.99S GOLDSBORO CLOUDY 62 61 96 W9 29.94R GREENVILLE CLOUDY 63 59 88 CALM 29.98R HAVELOCK CLOUDY 61 56 83 SW12 29.98S KENANSVILLE MOCLDY 61 57 88 SW5 29.97S KINSTON CLOUDY 63 57 82 SW8 29.96S NEW BERN MOCLDY 63 57 81 W7 29.97S RICHLANDS PTCLDY 61 57 87 SW9 29.98S ROCKY MOUNT CLOUDY 61 57 87 S3 29.94F WASHINGTON DRIZZLE 60 56 88 SW6 29.95S WHITEVILLE PTCLDY 64 58 81 SW14G21 30.00F $$ AMZ130-135-150-152-154-156-158-170-250-252-270-ANZ085-086-088-633-658-670-181300- MARINE OBSERVATIONS STATION/POSITION TIME TEMP WIND PRES WAVE SWELL AIR SEA DIR/SP/G HT/PER HT/PER (UTC) (F) (DEG/KT/KT) (MB) (FT/S) (FT/S) CHESAPEAKE LIGHT NOT AVBL 64 E VA BEACH 1150 57 57 230/ 16/ 19 1011.3 4/ 5 DUCK 1148 53 45 240/ 12/ 15 1012.2 2 E DUCK 1130 45 N/A 1/10 OREGON INLET 1142 52 51 210/ 10/ 13 1013.3 13E OREGON INLT NOT AVBL HATTERAS CG 1148 230/ 12/ 18 1014.0 DIAMOND BUOY 1150 69 71 250/ 25/ 29 1013.9 8/ 6 2/13 CAPE LOOKOUT 1200 62 230/ 13/ 19 1014.7 BEAUFORT LAB 1148 230/ 5/ 11 1014.1 30 SE NEW RVR IN 1108 62 61 250/ 21/ 29 1016.4 30 SE NEW RVR IN 1143 61 N/A 6/ 6 27 SE WRIGHTSVLE 1108 66 69 230/ 21/ 29 1016.1 5 SE WRIGHTSVLE NOT AVBL 225 S CAPE HAT 1050 72 72 240/ 16/ 17 1019.3 4/ 5 2/ 9 41 SE CHARLESTON 1050 70 71 240/ 19/ 21 1018.6 4/ 4 2/ 9 $$

USA.gov is the U.S. government's official web portal to all federal, state and local government web resources and services.